This is the latest recevied weather packets stored in our database for station/object KI4HRG. If no packets are shown the sender has not sent any weather packets the latest 10 day(s).
| Time | Temp. | Humidity | Pressure | Rain* | Wind** | Luminosity | Snow |
|---|---|---|---|---|---|---|---|
| 1787553497 | 22.22° C | 91% | 1015.7 hPa | 0 mm | - | 0 W/m² | - |
| 1787553193 | 22.22° C | 90% | 1015.7 hPa | 0 mm | - | 0 W/m² | - |
| 1787552890 | 22.78° C | 90% | 1015.8 hPa | 0 mm | - | 0 W/m² | - |
| 1787552585 | 22.78° C | 90% | 1015.8 hPa | 0 mm | - | 0 W/m² | - |
| 1787552280 | 22.78° C | 89% | 1015.8 hPa | 0 mm | - | 0 W/m² | - |
| 1787551975 | 22.78° C | 88% | 1016.1 hPa | 0 mm | - | 0 W/m² | - |
| 1787551670 | 22.78° C | 89% | 1016 hPa | 0 mm | - | 0 W/m² | - |
| 1787551370 | 22.78° C | 89% | 1016.1 hPa | 0 mm | - | 0 W/m² | - |
| 1787551064 | 22.78° C | 88% | 1016 hPa | 0 mm | - | 0 W/m² | - |
| 1787550759 | 22.78° C | 87% | 1016.1 hPa | 0 mm | - | 0 W/m² | - |
| 1787550455 | 22.78° C | 86% | 1016.2 hPa | 0 mm | - | 0 W/m² | - |
| 1787550150 | 22.78° C | 84% | 1016.4 hPa | 0 mm | - | 0 W/m² | - |
| 1787549846 | 22.78° C | 84% | 1016.3 hPa | 0 mm | - | 0 W/m² | - |
| 1787549542 | 22.78° C | 86% | 1016.3 hPa | 0 mm | - | 0 W/m² | - |
| 1787549236 | 22.78° C | 87% | 1016.2 hPa | 0 mm | - | 0 W/m² | - |
| 1787548932 | 23.33° C | 86% | 1016.2 hPa | 0 mm | - | 0 W/m² | - |
| 1787548628 | 23.33° C | 87% | 1016.4 hPa | 0 mm | - | 0 W/m² | - |
| 1787548323 | 23.33° C | 86% | 1016.1 hPa | 0 mm | - | 0 W/m² | - |
| 1787548020 | 23.33° C | 85% | 1016.2 hPa | 0 mm | - | 0 W/m² | - |
| 1787547715 | 23.89° C | 85% | 1016 hPa | 0 mm | - | 0 W/m² | - |
| 1787547410 | 23.89° C | 85% | 1016.1 hPa | 0 mm | - | 0 W/m² | - |
| 1787547104 | 23.89° C | 85% | 1016.1 hPa | 0 mm | - | 0 W/m² | - |
| 1787546800 | 23.89° C | 84% | 1016 hPa | 0 mm | - | 0 W/m² | - |
| 1787546496 | 23.89° C | 81% | 1016.3 hPa | 0 mm | - | 0 W/m² | - |
| 1787546192 | 23.89° C | 81% | 1016.1 hPa | 0 mm | - | 0 W/m² | - |
* Rain latest hour (hover to see other rain measurements)
** Current wind speed in m/s (hover to see current wind gust speed)